Voltar ao catálogo

STARLINK-6091

AtivoComunicaçõesVLEO
NORAD 56119·PAYLOAD·🇺🇸 United States

Lançado Mar 29, 2023 de Cape Canaveral Space Force Station

Loading…

Próximas Passagens (próximas 24 horas)

TLE

AtualizadoSource: CelesTrak SupGP

Época: Sep 15, 2026, 03:10 UTC

1 56119C 23046AC  26258.13243056  .00051790  00000+0  18761-2 0  2588
2 56119  43.0017 157.4321 0000824 249.9570 314.5121 15.27549476    10

Acompanhe STARLINK-6091 em tempo real com AllMySat

Download on the App Store